Location: Belloy
(49.8829°N, 2.8552°E)
Time: 13:31:06
(UTC+00:00)

Daily predictions for brighter satellites

Satellite Brightness Start Highest point End
(mag) Time Altitude Azimuth Time Altitude Azimuth Time Altitude Azimuth
Spot 2 Rocket 4.2 20:12:44 10° SE 20:17:27 39° ENE 20:22:11 10° N
Cosmos 332 Rocket 4.2 20:18:51 10° NNW 20:23:39 53° ENE 20:28:27 10° SE
ISS -3.6 20:21:57 10° WNW 20:25:19 63° SSW 20:28:39 10° ESE
ERS-2 2.1 20:23:04 10° NNE 20:26:45 87° WNW 20:30:23 10° SSW
Cosmos 1151 Rocket 4.4 20:23:49 10° NNE 20:27:23 24° ENE 20:30:58 10° ESE
Cosmos 1076 Rocket 3.5 20:23:07 10° S 20:27:25 69° E 20:31:47 10° NNE
USA 234 4.1 20:24:13 10° E 20:30:29 50° N 20:36:45 10° WNW
Cosmos 2219 Rocket 4.4 20:27:31 10° N 20:30:55 16° NNE 20:34:18 10° ENE
Cosmos 1092 Rocket 4.4 20:26:09 10° SSE 20:32:03 46° E 20:38:03 10° NNE
Cosmos 1782 3.9 20:29:17 10° N 20:32:53 30° ENE 20:36:11 11° SE
Landsat 7 4.0 20:29:19 10° S 20:34:03 75° WSW 20:38:51 10° NNW
SL-16 R/B 2.7 20:31:13 10° NNW 20:36:47 51° NE 20:42:00 11° SE
Cosmos 1538 Rocket 4.0 20:32:38 10° S 20:37:45 60° ESE 20:42:52 10° NNE
Cosmos 2098 Rocket 2.4 20:40:22 10° SSW 20:43:27 81° W 20:47:07 10° N
Cosmos 2026 Rocket 4.4 20:40:21 10° SSE 20:46:22 48° E 20:52:21 10° NNE
Cosmos 1271 Rocket 3.0 20:42:41 10° N 20:46:37 55° ENE 20:50:02 13° SSE
GP-B 3.4 20:46:12 10° N 20:50:33 49° E 20:54:30 12° SSE
CZ-2C R/B 3.7 20:46:13 10° NNE 20:50:46 64° ESE 20:55:12 10° S
Nadezhda 4 Rocket 4.1 20:47:26 10° SSW 20:53:36 82° W 20:59:54 10° N
ATLAS 5 CENTAUR R/B 4.0 20:56:21 10° NNW 21:00:21 23° NNE 21:04:53 10° ENE
Cosmos 304 Rocket 3.8 20:56:09 10° NNW 21:00:59 83° WSW 21:05:03 14° SSE
Okean 3 Rocket 4.2 21:04:43 16° SSE 21:07:53 39° E 21:12:05 10° NNE
SPOT 1/Viking Rocket 4.1 21:03:01 10° S 21:08:07 58° W 21:13:18 10° NNW
Cosmos 2082 Rocket 3.0 21:05:43 10° SW 21:11:14 56° NW 21:16:51 10° NNE
USA 245 4.2 21:07:07 10° S 21:12:17 61° WSW 21:16:29 10° NNW
Cosmos 220 Rocket 4.4 21:09:00 10° NNW 21:13:15 52° ENE 21:16:06 20° SE
Cosmos 1428 Rocket 4.4 21:10:11 10° S 21:16:19 77° E 21:22:27 10° NNE
BREEZE-M DEB (TANK) 3.4 21:15:00 10° W 21:18:07 40° SSW 21:23:01 17° SE
Resurs 01 Rocket 3.6 21:14:44 10° SSW 21:18:26 25° W 21:22:10 10° NW
BREEZE-M DEB (TANK) 4.5 21:15:51 10° W 21:19:28 43° SSW 21:26:50 17° SE
Cosmos 2360 Rocket 2.6 21:16:04 10° NNW 21:21:36 52° NE 21:25:36 18° SE
Cosmos 923 Rocket 4.0 21:18:55 10° S 21:24:13 68° ESE 21:29:33 10° NNE
Cosmos 1553 Rocket 4.0 21:20:01 10° N 21:26:05 68° ENE 21:30:29 19° SSE
Cosmos 1408 Rocket 4.4 21:24:14 22° SE 21:26:12 32° E 21:30:04 10° NNE
Cosmos 2333 Rocket 3.3 21:23:21 10° NNW 21:28:29 34° NE 21:32:47 14° ESE
ATLAS 2AS CENTAUR R/B 3.9 21:22:37 10° WSW 21:30:20 53° NW 21:37:46 10° NE
RESURS DK-1 4.4 21:27:17 10° WSW 21:31:01 32° NW 21:34:48 10° NNE
CARTOSAT-1 4.4 21:29:56 13° S 21:33:32 47° W 21:37:44 10° NNW
Cosmos 2056 Rocket 3.6 21:28:54 10° NNW 21:34:18 69° ENE 21:37:36 23° SE
USA 276 2.7 21:31:21 10° W 21:34:21 39° SSW 21:35:05 33° S
Cosmos 1812 2.7 21:31:28 10° N 21:35:21 70° E 21:37:16 28° SSE
Cosmos 2151 4.2 21:31:21 10° SW 21:35:22 41° WNW 21:39:27 10° N
ATLAS 3B R/B 3.9 21:30:11 10° NW 21:36:33 36° WSW 21:42:22 13° S
USA 267 3.8 21:31:37 10° ENE 21:37:33 35° SE 21:43:26 10° SSW
Cosmos 1980 Rocket 4.3 21:38:22 10° WNW 21:42:13 19° W 21:46:03 10° SW
Cosmos 2084 3.9 21:42:47 29° SSE 21:43:53 34° ESE 21:47:42 10° ENE
ERS-1 Rocket 3.4 21:40:38 17° S 21:44:23 59° W 21:49:22 10° NNW
SPOT 5 3.1 21:41:37 19° S 21:44:36 54° W 21:48:55 10° NNW
ARIANE 5 R/B 3.5 21:41:11 15° SSW 21:44:37 44° W 21:48:55 10° NNW
SL-27 R/B 3.3 21:44:33 31° ESE 21:45:04 33° ESE 21:48:21 10° NE
Terra 1.9 21:43:31 22° S 21:46:34 75° WSW 21:51:21 10° NNW
NOSS 2-1 (C) 3.6 21:46:53 31° ESE 21:46:53 31° ESE 21:49:38 10° ENE
Cosmos 1515 Rocket 3.7 21:43:12 10° N 21:47:39 63° ENE 21:49:44 29° SSE
Cosmos 1655 Rocket 4.4 21:43:54 22° SSE 21:47:46 50° E 21:53:54 10° NNE
Cosmos 2237 Rocket 4.3 21:47:19 10° N 21:51:16 19° NE 21:55:13 10° E
Cosmos 2322 Rocket 2.4 21:47:32 10° NW 21:53:07 64° WSW 21:56:28 24° S
Cosmos 1417 Rocket 4.5 21:46:49 10° N 21:53:12 87° E 21:57:19 23° S
NOSS 2-1 (D) 3.3 21:54:20 38° ESE 21:54:20 38° ESE 21:57:25 10° NE
Cosmos 1371 Rocket 4.1 21:50:17 10° NNW 21:55:40 76° WSW 21:58:42 27° SSE
S3M 4.1 21:49:21 10° N 21:55:47 76° E 21:59:44 25° SSE
H-2A R/B 3.5 21:54:35 10° NNE 21:58:47 64° ESE 22:00:37 31° S
Cosmos 2112 Rocket 3.9 21:54:10 13° SSW 21:58:54 84° ESE 22:04:12 10° NNE
Gbstr 26 Del rocket 3.6 21:56:07 10° W 21:59:35 34° SSW 22:00:26 30° S
Cosmos 1680 Rocket 3.5 21:54:26 10° SSW 21:59:44 84° WNW 22:05:02 10° NNE
Cosmos 1766 Rocket 4.0 21:57:59 16° SSW 22:01:27 61° WNW 22:05:49 10° N
ISS -1.6 21:59:36 10° W 22:01:36 15° SW 22:01:36 15° SW
Cosmos 1862 3.2 22:02:44 30° S 22:04:39 89° W 22:08:40 10° N
Cosmos 1151 Rocket 4.1 22:01:02 10° NNW 22:05:06 40° W 22:07:51 18° SSW
Cosmos 1328 Rocket 4.2 22:02:05 10° NNW 22:06:25 50° W 22:08:55 23° SSW
COSMOS 2455 3.7 22:05:55 26° SE 22:07:25 30° ESE 22:12:33 10° NE
USA 234 3.4 22:07:28 15° ESE 22:13:08 78° NNE 22:19:42 10° WNW
ALOS 2 4.0 22:13:01 21° ESE 22:14:49 28° ENE 22:18:36 10° N
Cosmos 2219 Rocket 2.6 22:10:39 10° NNW 22:16:11 56° NE 22:19:13 26° ESE
COBE Rocket 4.0 22:16:53 34° SE 22:18:43 60° ENE 22:23:21 10° N
IRIDIUM 106 4.5 22:14:22 10° N 22:19:34 61° E 22:21:45 34° SSE
SL-16 R/B 3.4 22:15:42 10° NW 22:20:40 32° WSW 22:23:52 19° SSW
Cosmos 2333 4.1 22:16:57 10° NNW 22:22:36 82° ENE 22:25:16 33° SE
COSMOS 2428 3.1 22:21:00 10° NNW 22:26:38 56° NE 22:29:40 27° ESE
Cosmos 292 Rocket 3.9 22:28:27 10° NNW 22:33:11 64° WSW 22:34:52 38° S
Cosmos 1805 Rocket 3.9 22:32:29 40° SE 22:33:31 49° E 22:37:48 10° NNE
Cosmos 1515 4.4 22:33:32 10° N 22:37:07 39° ENE 22:37:44 36° E
CZ-3B R/B 2.4 22:32:59 10° WNW 22:42:59 88° SSW 22:44:25 38° ESE
Cosmos 1500 Rocket 3.6 22:43:11 39° SSW 22:44:47 76° W 22:49:15 10° N
ATLAS 5 CENTAUR R/B 2.6 22:40:39 10° NW 22:45:55 60° NE 22:49:59 22° ESE
Meteor 1-27 Rocket 3.9 22:42:19 10° NNW 22:47:55 68° W 22:50:25 34° S
NOSS 2-1 (E) 3.2 22:51:16 37° WSW 22:52:21 63° NW 22:55:54 10° NE
NOSS 3-1 (C) 4.1 22:46:51 10° NW 22:54:14 71° SW 22:58:46 31° SSE
NOSS 0 Rocket 4.3 22:50:49 10° NNW 22:57:01 59° NE 23:00:29 26° SE
Cosmos 972 Rocket 3.9 22:55:31 38° S 22:57:37 80° ESE 23:02:40 10° NNE
Cosmos 2285 Rocket 4.0 22:55:50 10° NNW 23:02:09 78° WSW 23:04:48 37° S
Cosmos 1743 Rocket 4.2 23:02:36 31° SW 23:04:25 51° WNW 23:08:46 10° N
Cosmos 2360 Rocket 3.4 23:00:29 10° NW 23:05:21 31° WSW 23:07:21 24° SW
Cosmos 2315 Rocket 4.3 23:00:08 10° NNW 23:06:22 63° W 23:09:19 32° SSW
Cosmos 1452 Rocket 3.7 23:01:41 10° NNW 23:06:53 62° WSW 23:08:29 42° SSW
Meteor 1-20 Rocket 4.2 23:05:25 40° S 23:07:28 77° E 23:13:10 10° NNE
USA 229 DEB 3.8 23:00:38 10° NW 23:07:56 84° SW 23:12:08 30° SE
USA 229 3.8 23:00:44 10° NW 23:08:02 85° SW 23:12:15 30° SE
Cosmos 1980 4.3 23:07:27 10° NNW 23:13:00 52° NE 23:16:00 26° ESE
Cosmos 2333 Rocket 2.5 23:07:32 10° NW 23:13:01 52° WSW 23:14:46 38° SSW
COSMOS 2487 2.3 23:13:20 77° WNW 23:13:20 77° WNW 23:16:44 10° NNE
Cosmos 2084 Rocket 4.2 23:11:00 10° NW 23:15:01 47° NE 23:17:04 26° E
Spot 4 4.3 23:14:03 39° SSW 23:15:24 51° W 23:20:08 10° NNW
Sich 1 3.0 23:14:38 54° SSW 23:15:36 82° W 23:19:58 10° N
Cosmos 1633 Rocket 3.3 23:17:04 48° SE 23:17:40 52° E 23:21:55 10° NNE
Cosmos 2228 Rocket 4.0 23:16:10 10° NNW 23:20:16 38° W 23:21:21 32° SW
Cosmos 1666 Rocket 3.6 23:20:10 56° SSE 23:20:53 68° E 23:25:19 10° NNE
USA 267 3.2 23:14:26 10° ENE 23:21:02 88° NW 23:27:36 10° WSW
Cosmos 489 Rocket 4.4 23:20:59 37° SSW 23:23:43 79° ESE 23:30:06 10° NNE
Cosmos 2322 4.2 23:18:47 10° NW 23:24:13 46° WSW 23:25:54 36° SSW
Terra 4.4 23:24:25 10° W 23:25:10 10° W 23:25:54 10° WNW
NOSS 3-1 (A) 4.1 23:20:58 10° NW 23:28:21 71° SW 23:32:41 32° SSE
Meteor 1-18 Rocket 4.2 23:24:23 10° NNW 23:30:18 90° E 23:32:22 43° S
CZ-4C R/B 4.2 23:26:13 10° NW 23:32:17 37° NNE 23:39:27 10° E
Cosmos 2297 Rocket 3.1 23:32:09 29° SE 23:33:10 31° ESE 23:38:05 10° NE
Cosmos 1110 Rocket 4.1 23:28:53 10° NNW 23:34:11 68° WSW 23:35:37 47° S
Cosmos 2237 Rocket 2.4 23:30:44 10° NNW 23:36:25 69° ENE 23:38:58 34° SE
Okean 1 3.4 23:33:01 10° NNW 23:37:00 61° W 23:37:21 58° SW
Meteor 1-25 Rocket 4.4 23:38:17 35° SW 23:40:35 65° WNW 23:46:09 10° N
Cosmos 1331 Rocket 4.0 23:35:22 10° NNW 23:40:35 66° WSW 23:41:53 48° S
Cosmos 1862 Rocket 3.4 23:37:59 10° N 23:42:22 84° W 23:43:02 63° S
Cosmos 1500 3.0 23:44:24 78° SW 23:44:37 85° W 23:48:30 10° N
Cosmos 2227 Rocket 3.3 23:43:37 27° SE 23:44:42 29° ESE 23:49:30 10° NE
Cosmos 1745 Rocket 4.1 23:43:09 39° SSE 23:45:28 65° E 23:51:42 10° NNE
ALOS 2 3.4 23:50:25 35° WSW 23:51:03 37° W 23:55:09 10° NNW
Cosmos 1707 Rocket 4.3 23:47:47 10° NNW 23:51:51 39° W 23:52:31 36° WSW
COSMOS 2455 3.2 23:49:00 22° SW 23:53:00 63° NW 23:59:00 10° NNE
